#timestamp,LO_Frequency,Hit,StdDev 
1588932715.0,286046969.4,P
1588932716.0,286046969.4,P
1588932735.8,286046968.2,P
1588932755.6,286046967.9,Y
1588932775.5,286046998.9,P
1588932795.3,286046996.9,N
1588932815.1,286046996.7,N
1588932835.9,286046997.6,N
1588932855.7,286046995.0,N
1588932875.6,286046996.1,N
1588932895.4,286046993.3,N
1588932915.2,286046996.3,N
1588932935.1,286046994.4,N
1588932936.0,286046994.4,N
1588932955.8,286046994.8,N
1588932975.6,286046992.2,N
1588932995.5,286046990.2,N
1588933015.3,286046991.4,N
1588933035.2,286046990.4,N
1588933055.9,286046990.3,N
1588933075.7,286046991.3,N
1588933095.6,286046989.1,N
1588933115.4,286046987.1,N
1588933135.2,286046988.0,N
1588933155.1,286046986.6,N
1588933156.0,286046986.6,N
1588933175.8,286046984.0,N
1588933195.7,286046982.4,N
1588933215.5,286046983.2,N
1588933235.3,286046983.2,N
1588933255.2,286046980.5,Y
1588933275.0,286046990.7,P
1588933275.9,286046990.7,P
1588933295.8,286046991.5,P
1588933315.6,286046988.7,Y
1588933335.4,286046998.7,P
1588933355.3,286046999.5,N
1588933375.1,286046996.6,N
1588933395.8,286046997.7,N
1588933415.7,286046997.5,N
1588933435.5,286046994.9,N
1588933455.4,286046996.1,N
1588933475.2,286046995.5,N
1588933495.0,286046995.8,N
1588933495.9,286046995.8,N
1588933515.8,286046994.0,N
1588933535.6,286046994.3,N
1588933555.5,286046992.5,Y
1588933575.3,286046995.1,P
1588933595.1,286046995.7,P
1588933615.9,286046993.6,P
1588933635.7,286046994.6,Y
1588933655.5,286046996.7,P
1588933675.4,286046996.8,P
1588933695.2,286046994.9,P
1588933715.1,286046995.0,Y
1588933716.0,286046995.0,P
1588933735.8,286047000.5,N
1588933755.6,286047000.2,N
1588933775.5,286047000.5,N
1588933795.3,286046999.7,N
1588933815.2,286047000.4,N
1588933835.9,286046999.4,N
1588933855.7,286046996.8,N
1588933875.6,286046997.3,N
1588933895.4,286046997.9,N
1588933915.2,286046997.2,N
1588933935.1,286046995.7,N
1588933936.0,286046995.7,N
1588933955.8,286046996.4,N
1588933975.7,286046993.5,Y
1588933995.5,286046995.0,P
1588934015.3,286046996.2,N
1588934035.2,286046993.5,P
1588934055.0,286046992.0,Y
1588934055.9,286046992.0,P
1588934075.7,286046996.8,N
1588934095.6,286046994.9,N
1588934115.4,286046997.6,N
1588934135.3,286046997.0,N
1588934155.1,286046996.0,N
1588934156.0,286046996.0,N
1588934175.8,286046991.7,Y
1588934195.7,286046995.6,P
1588934215.5,286046995.4,P
1588934235.4,286046996.2,P
1588934255.2,286046994.1,Y
1588934275.0,286046996.5,P
1588934275.9,286046996.5,P
1588934295.8,286046996.8,P
1588934315.6,286046999.4,N
1588934335.4,286046998.3,N
1588934355.3,286046998.7,N
1588934375.1,286046996.7,N
1588934395.9,286046997.3,N
1588934415.7,286046995.9,Y
1588934435.5,286046996.9,P
1588934455.4,286046999.4,N
1588934475.2,286046998.4,N
1588934495.0,286046996.6,Y
1588934496.0,286046996.6,P
1588934515.8,286046998.4,N
1588934535.6,286046999.5,N
1588934555.5,286046996.7,Y
1588934575.3,286046998.9,P
1588934595.1,286046999.5,N
1588934615.9,286046997.2,P
1588934635.7,286046997.3,Y
1588934655.6,286046996.5,P
1588934675.4,286046997.6,N
1588934695.2,286046995.3,P
1588934715.1,286046996.2,Y
1588934716.0,286046996.2,P
1588934735.8,286046997.9,P
1588934755.7,286046995.1,P
1588934775.5,286046996.4,Y
1588934795.3,286046999.0,P
1588934815.2,286046997.8,N
1588934835.0,286046994.9,P
1588934835.9,286046994.9,Y
1588934855.7,286046998.6,P
1588934875.6,286047001.1,N
1588934895.4,286046999.3,N
1588934915.3,286046999.3,N
1588934935.1,286046999.0,N
1588934936.0,286046999.0,N
1588934955.8,286046999.3,N
1588934975.7,286046996.8,Y
1588934995.5,286046996.7,P
1588935015.3,286046995.6,P
1588935035.2,286046995.2,P
1588935055.0,286046993.6,Y
1588935055.9,286046993.6,P
1588935075.8,286046997.8,N
1588935095.6,286046996.0,N
1588935115.4,286046996.3,N
1588935135.3,286046996.4,N
1588935155.1,286046996.0,Y
1588935175.9,286046996.9,P
1588935195.7,286046997.3,P
1588935215.5,286046996.7,P
1588935235.4,286046995.4,Y
1588935255.2,286047000.8,P
1588935275.0,286046998.4,N
1588935276.0,286046998.4,N
1588935295.8,286046998.2,N
1588935315.6,286046999.1,N
1588935335.5,286046999.5,N
1588935355.3,286046997.8,N
1588935375.1,286046995.3,Y
1588935395